Volver al catálogo

METEOR 2-8 DEB

ActivoPO
NORAD 36326·DEBRIS·🇷🇺 Russia

Lanzado Mar 25, 1982 desde Plesetsk Cosmodrome

Loading…

Próximos Pases (próximas 24 horas)

TLE

EnvejeciendoSource: Space-Track

Época: Sep 10, 2026, 01:53 UTC

1 36326U 82025L   26253.07903353  .00003138  00000-0  12376-2 0  9991
2 36326  82.5148 177.5172 0021984 358.6550   1.4572 14.28744382114611

Sigue METEOR 2-8 DEB en tiempo real con AllMySat

Download on the App Store